User: anonymous   Login
Location: Unspecified
(0.0000°N, 0.0000°E)
Time: 16:56:31
(UTC+00:00)
Language:

Gonets-D1 - Orbit

View from above orbital plane
View from above orbital plane
View from above satellite
View from above satellite

Ground track
Ground track

The orbit data is extracted from the following two-line orbital elements,

1 23789U 96009C   24106.44862678  .00000038  00000-0  15083-3 0  9992
2 23789  82.5734 106.0012 0006495  67.2558 292.9219 12.62649451297650
Epoch (UTC): 15 April 2024 10:46:01
Eccentricity: 0.0006495
inclination: 82.5734°
perigee height: 1407 km
apogee height: 1417 km
right ascension of ascending node: 106.0012°
argument of perigee: 67.2558°
revolutions per day: 12.62649451
mean anomaly at epoch: 292.9219°
orbit number at epoch: 29765

The dashed part of the orbit path shows where the satellite is in the earth's shadow,  

DLR